[[{"header":{"parameterUnit":"m.s-1","parameterCategory":1,"la1":30.2991,"la2":30.254,"lo1":-89.0895,"lo2":-89.0444,"dy":0.0017,"dx":0.0017,"nx":28,"ny":28,"refTime":"2025-01-29T03:00:00:Z","depth":0,"parameterNumber":2,"parameterNumberName":"U-component_of_WINDS"},"data":[0,0,0,0,0,0,0,0,0,0,0,0,0,0,0,0,0,0,0,0,0,0,0,0,0,0,0,0,0,0,0,0,0,0,0,0,0,0,0,0,0,0,0,0,0,0,0,0,0,0,0,0,0,0,0,0,0,0,0.6592,0.6593,0,0.6688,0.6689,0.669,0.6741,0.6741,0.6741,0.6741,0.6841,0.6843,0.6846,0,0,0,0,0,0,0,0,0,0,0,0,0,0.6452,0.6454,0.6592,0.6593,0.6594,0.6688,0.6689,0.6691,0.6741,0.6741,0.6741,0.6741,0.684,0.6843,0.6846,0,0,0,0,0,0,0,0,0,0,0,0,0,0.6527,0.6455,0.6592,0.6631,0.6635,0.6688,0.6689,0.6691,0.6741,0.6741,0.6741,0.6741,0.6839,0.6842,0.6846,0.6868,0,0,0.6858,0.686,0,0,0,0,0,0,0,0,0.6522,0.6532,0.6624,0.6628,0.6633,0.6703,0.6676,0.675,0.6741,0.6701,0.6741,0.6741,0.6795,0.6802,0.682,0.6872,0.6876,0.6858,0.6861,0.6862,0.6863,0,0,0,0,0,0,0,0.6517,0.6528,0.663,0.6625,0.6631,0.6643,0.6654,0.669,0.6746,0.6704,0.6708,0.6719,0.6797,0.6816,0.6823,0.6878,0.6858,0.6862,0.6864,0.6866,0.6951,0.6951,0,0,0,0,0,0,0.6506,0.6523,0.6627,0.6633,0.6577,0.6646,0.6658,0.668,0.6746,0.6756,0.6719,0.6721,0.6809,0.6818,0.6826,0.6855,0.6862,0.6866,0.6868,0.6951,0.6951,0.6951,0,0,0,0,0,0,0.6502,0.6514,0.6623,0.6579,0.6594,0.6648,0.6673,0.6682,0.6701,0.6756,0.6767,0.6728,0.681,0.6821,0.6856,0.6859,0.6868,0.6871,0.6951,0.6951,0.6951,0.6912,0,0,0,0,0,0,0.6498,0.6513,0.6522,0.6579,0.6596,0.6652,0.6673,0.6684,0.6707,0.6711,0.6768,0.6777,0.6811,0.685,0.686,0.6864,0.6874,0.6951,0.6951,0.6951,0.6913,0.691,0.6908,0,0,0,0,0,0.6493,0.6507,0.6522,0.6534,0.6608,0.6652,0.6662,0.67,0.6707,0.6717,0.6752,0.6775,0.6857,0.6854,0.6865,0.687,0.6951,0.6951,0.6951,0.6914,0.6911,0.6908,0,0,0,0,0,0,0.645,0.6516,0.6533,0.6566,0.6603,0.666,0.6673,0.6695,0.6731,0.6733,0.6779,0.6791,0.6822,0.685,0.6845,0.6893,0.6906,0.6908,0.6874,0.6872,0.6869,0.6862,0.6877,0,0,0,0,0,0.6444,0.6474,0.653,0.6554,0.6571,0.6619,0.6639,0.6665,0.6705,0.6721,0.6759,0.6797,0.6832,0.6853,0.6888,0.6917,0.6929,0.6926,0.6923,0.6921,0.6922,0.6939,0.6937,0.695,0.695,0.695,0,0,0.6433,0.6473,0.6489,0.6546,0.6578,0.6607,0.6632,0.6662,0.6684,0.6726,0.6762,0.6791,0.6836,0.6868,0.6884,0.6892,0.6921,0.6921,0.6919,0.6922,0.6938,0.6937,0.6936,0.695,0.695,0.695,0,0,0.6428,0.6461,0.6484,0.6514,0.6562,0.6593,0.6598,0.6652,0.6672,0.6709,0.674,0.6767,0.6825,0.6856,0.6879,0.6883,0.6905,0.6893,0.6879,0.6895,0.6893,0.6893,0.6893,0.6893,0.6894,0.6894,0.6894,0,0.6408,0.6454,0.6493,0.6521,0.6545,0.6583,0.6607,0.6635,0.669,0.6706,0.6714,0.6786,0.682,0.6859,0.6859,0.6877,0.6884,0.6887,0.689,0.689,0.689,0.6891,0.6891,0.6892,0.6892,0.6892,0.6892,0,0.6426,0.6457,0.647,0.6522,0.6548,0.6573,0.6616,0.6637,0.666,0.669,0.6726,0.6767,0.681,0.6821,0.6845,0.6863,0.6866,0.6882,0.6895,0.6886,0.6888,0.6889,0.6889,0.689,0.689,0.6891,0,0,0.6398,0.647,0.6474,0.6498,0.6551,0.6576,0.6603,0.6644,0.666,0.6697,0.672,0.6768,0.6781,0.6808,0.6835,0.6848,0.6847,0.6862,0.6863,0.6857,0.6868,0.6856,0.6856,0.6862,0.6862,0.6862,0.6864,0,0.64,0.645,0.6485,0.6521,0.6549,0.6585,0.6608,0.6643,0.6671,0.6699,0.6731,0.6763,0.6779,0.6795,0.681,0.6844,0.685,0.6844,0.6883,0.6884,0.6871,0.6857,0.6845,0.6844,0.6865,0.6865,0.6865,0,0.6409,0.6444,0.6482,0.6531,0.6544,0.6564,0.6604,0.663,0.6671,0.669,0.6718,0.6745,0.6774,0.6785,0.6825,0.682,0.6838,0.6857,0.6858,0.6863,0.6874,0.6861,0.6845,0.6845,0.6867,0.6867,0.6867,0,0.6384,0.644,0.647,0.6489,0.6547,0.656,0.6585,0.6625,0.6646,0.6681,0.6695,0.6733,0.6754,0.6782,0.6818,0.6823,0.6854,0.6868,0.6871,0.687,0.6876,0.6875,0.6862,0.6888,0.6888,0.6888,0.6888,0,0.6382,0.6404,0.6459,0.6477,0.6502,0.6542,0.6566,0.6593,0.6628,0.6652,0.6685,0.6707,0.6754,0.6781,0.681,0.6838,0.6847,0.6863,0.6871,0.686,0.6858,0.6873,0.6873,0.6888,0.6888,0.6888,0.6888,0,0.6358,0.6396,0.6431,0.6482,0.6495,0.6511,0.6555,0.6574,0.6603,0.6633,0.6642,0.6688,0.6722,0.676,0.6807,0.6826,0.6852,0.6863,0.6838,0.6842,0.6842,0.6841,0.6838,0.6839,0.6864,0.6864,0.6863,0,0.6355,0.6372,0.6425,0.6443,0.6466,0.6495,0.6517,0.6557,0.6578,0.6624,0.6637,0.6672,0.6703,0.6755,0.6792,0.6827,0.6839,0.6836,0.6845,0.6833,0.6838,0.6837,0.6838,0.6833,0.6833,0.6832,0.6832,0,0.6344,0.6362,0.6392,0.6428,0.6453,0.6483,0.6515,0.6528,0.6574,0.6596,0.663,0.6654,0.67,0.6735,0.6774,0.68,0.6823,0.6829,0.6831,0.682,0.6805,0.6812,0.683,0.6829,0.6829,0.6829,0.683,0.683,0.6331,0.6347,0.6386,0.6418,0.6446,0.6474,0.6494,0.6524,0.6553,0.6594,0.6615,0.6649,0.6687,0.6742,0.6766,0.6792,0.6801,0.6804,0.6805,0.6805,0.6802,0.68,0.68,0.68,0.68,0.68,0.68,0,0.6321,0.6347,0.6376,0.6419,0.6444,0.6463,0.6498,0.6518,0.6547,0.658,0.6609,0.6647,0.668,0.6719,0.6755,0.6768,0.6779,0.6776,0.6775,0.678,0.6793,0.6787,0.6766,0.6766,0.6766,0.6766,0.6766,0.6766,0.6319,0.6348,0.6369,0.6411,0.6437,0.6469,0.6488,0.6514,0.654,0.6581,0.6608,0.6633,0.6669,0.6706,0.6737,0.6748,0.6759,0.6752,0.6766,0.6777,0.678,0.6783,0.6777,0.6755,0.6755,0.6751,0.6751,0.6751]},{"header":{"parameterUnit":"m.s-1","parameterCategory":1,"la1":30.2991,"la2":30.254,"lo1":-89.0895,"lo2":-89.0444,"dy":0.0017,"dx":0.0017,"nx":28,"ny":28,"refTime":"2025-01-29T03:00:00:Z","depth":0,"parameterNumber":3,"parameterNumberName":"V-component_of_WINDS"},"data":[0,0,0,0,0,0,0,0,0,0,0,0,0,0,0,0,0,0,0,0,0,0,0,0,0,0,0,0,0,0,0,0,0,0,0,0,0,0,0,0,0,0,0,0,0,0,0,0,0,0,0,0,0,0,0,0,0,0,1.137,1.1369,0,1.1278,1.1277,1.1276,1.1265,1.1266,1.1267,1.1268,1.1169,1.1165,1.1162,0,0,0,0,0,0,0,0,0,0,0,0,0,1.153,1.1527,1.137,1.1369,1.1368,1.1279,1.1277,1.1276,1.1265,1.1266,1.1267,1.1269,1.117,1.1166,1.1161,0,0,0,0,0,0,0,0,0,0,0,0,0,1.1452,1.1526,1.137,1.1352,1.1349,1.1279,1.1277,1.1276,1.1265,1.1266,1.1268,1.1269,1.1171,1.1166,1.1161,1.1101,0,0,1.1145,1.1142,0,0,0,0,0,0,0,0,1.1456,1.1446,1.1356,1.1353,1.135,1.1285,1.1297,1.1217,1.1265,1.1297,1.1268,1.127,1.1206,1.1198,1.1177,1.1096,1.1092,1.1144,1.1141,1.1139,1.1137,0,0,0,0,0,0,0,1.1462,1.145,1.1334,1.1354,1.1351,1.1346,1.1337,1.1282,1.1244,1.1294,1.1293,1.1283,1.1204,1.1182,1.1175,1.109,1.1144,1.114,1.1137,1.1134,1.0954,1.0952,0,0,0,0,0,0,1.1471,1.1454,1.1337,1.1331,1.1408,1.1342,1.1332,1.1304,1.1245,1.1238,1.1282,1.1283,1.1191,1.1181,1.1171,1.1096,1.1139,1.1134,1.1131,1.0955,1.0954,1.0952,0,0,0,0,0,0,1.1475,1.1461,1.134,1.1392,1.1377,1.1338,1.1308,1.1302,1.128,1.1236,1.1228,1.1266,1.1191,1.1179,1.1119,1.1093,1.1132,1.1127,1.0957,1.0955,1.0953,1.0946,0,0,0,0,0,0,1.1479,1.1462,1.144,1.1392,1.1374,1.1291,1.1306,1.1299,1.1271,1.1272,1.122,1.1212,1.1192,1.1126,1.1113,1.1086,1.1123,1.096,1.0956,1.0953,1.0948,1.0944,1.094,0,0,0,0,0,1.1485,1.1441,1.1439,1.1425,1.1346,1.1289,1.1279,1.1258,1.127,1.1246,1.1218,1.1214,1.1098,1.112,1.1105,1.1076,1.0961,1.0957,1.0954,1.095,1.0945,1.094,0,0,0,0,0,0,1.1485,1.1434,1.1432,1.1371,1.1335,1.1288,1.1258,1.1252,1.121,1.1212,1.1186,1.1174,1.1115,1.109,1.1115,1.1014,1.103,1.1024,1.1033,1.1027,1.1023,1.1029,1.1118,0,0,0,0,0,1.1479,1.1439,1.1396,1.1346,1.1328,1.1296,1.1271,1.1258,1.1218,1.1202,1.1169,1.1129,1.1084,1.1054,1.101,1.0945,1.0933,1.0918,1.0913,1.091,1.0904,1.0866,1.0859,1.094,1.094,1.094,0,0,1.1464,1.1431,1.1407,1.1346,1.1316,1.1273,1.1283,1.1238,1.1205,1.1194,1.1136,1.111,1.1064,1.1001,1.0971,1.0978,1.0879,1.0905,1.0903,1.0898,1.0862,1.0854,1.0847,1.0937,1.0938,1.0938,0,0,1.1415,1.1387,1.1343,1.1313,1.1268,1.1247,1.1237,1.119,1.1173,1.1114,1.1105,1.1065,1.0988,1.0955,1.0928,1.0867,1.0861,1.0853,1.083,1.0793,1.0787,1.0781,1.0758,1.075,1.0847,1.0847,1.0847,0,1.1402,1.1339,1.132,1.1274,1.1247,1.1238,1.1191,1.1162,1.1105,1.1085,1.1094,1.0997,1.0965,1.0893,1.0878,1.0857,1.0843,1.0858,1.079,1.0784,1.0778,1.0755,1.0747,1.0847,1.0847,1.0847,1.0847,0,1.1324,1.128,1.1249,1.1196,1.1165,1.1119,1.1091,1.1062,1.1051,1.1029,1.0968,1.093,1.0877,1.086,1.0849,1.0786,1.0792,1.0796,1.0811,1.077,1.0748,1.0739,1.0845,1.0846,1.0846,1.0846,0,0,1.1271,1.1209,1.1198,1.1173,1.1123,1.1088,1.1041,1.0992,1.0966,1.0927,1.0886,1.0821,1.0824,1.0793,1.0778,1.0747,1.0699,1.0754,1.0753,1.0744,1.0626,1.0622,1.0613,1.0695,1.0694,1.0692,1.0629,0,1.1216,1.1134,1.1115,1.1044,1.1003,1.0993,1.0952,1.0916,1.0894,1.0854,1.0828,1.0782,1.0791,1.0772,1.0741,1.0712,1.0674,1.0716,1.0654,1.0653,1.0665,1.0602,1.0598,1.054,1.0621,1.0619,1.0618,0,1.1139,1.11,1.1025,1.0981,1.0963,1.0926,1.0879,1.0842,1.08,1.0786,1.0752,1.074,1.0689,1.0708,1.0637,1.0665,1.0639,1.0621,1.0618,1.061,1.0632,1.059,1.0521,1.0512,1.0605,1.0606,1.0607,0,1.1107,1.1035,1.0981,1.096,1.0907,1.0882,1.0858,1.0818,1.0789,1.0747,1.0728,1.068,1.0654,1.0616,1.0591,1.0607,1.052,1.0538,1.0505,1.0506,1.0486,1.0487,1.041,1.0472,1.0472,1.0472,1.0472,0,1.1046,1.1,1.0966,1.0932,1.088,1.0859,1.0807,1.0783,1.0748,1.0708,1.0696,1.0659,1.0629,1.0587,1.0567,1.0509,1.0498,1.0483,1.0478,1.0483,1.0485,1.0465,1.0467,1.047,1.047,1.0471,1.0471,0,1.1,1.0976,1.0916,1.0871,1.0859,1.0822,1.0783,1.0749,1.0727,1.0676,1.0663,1.0627,1.0577,1.0549,1.0485,1.0472,1.0407,1.0405,1.0422,1.0419,1.0388,1.0391,1.0294,1.0279,1.0352,1.0352,1.0351,0,1.0962,1.0927,1.0878,1.0852,1.0828,1.0786,1.0757,1.0734,1.0704,1.0654,1.0625,1.0575,1.0533,1.0453,1.042,1.0371,1.0366,1.0336,1.0359,1.0365,1.0364,1.0366,1.0361,1.0331,1.033,1.033,1.033,0,1.0896,1.0886,1.0845,1.0801,1.0767,1.073,1.0693,1.0671,1.0642,1.0608,1.0558,1.0526,1.0462,1.0411,1.0359,1.0333,1.0325,1.0323,1.0312,1.0317,1.0327,1.032,1.0409,1.0325,1.0325,1.0326,1.0326,1.0326,1.0852,1.082,1.0781,1.0736,1.0706,1.0672,1.0638,1.0612,1.057,1.0518,1.0506,1.0453,1.0411,1.0341,1.0313,1.0269,1.0275,1.026,1.0256,1.0253,1.0251,1.0336,1.026,1.026,1.026,1.026,1.026,0,1.0784,1.0759,1.0718,1.0668,1.0632,1.0631,1.059,1.0559,1.0513,1.0476,1.0435,1.0377,1.0327,1.0291,1.024,1.0212,1.0207,1.02,1.02,1.0194,1.0249,1.0263,1.0204,1.0204,1.0204,1.0204,1.0204,1.0204,1.0745,1.069,1.0675,1.0605,1.058,1.0529,1.0505,1.0473,1.0443,1.0379,1.0339,1.0316,1.0278,1.0225,1.0179,1.017,1.0151,1.0143,1.0133,1.0184,1.019,1.0196,1.0208,1.0139,1.0139,1.0081,1.008,1.008]}]]